Location: Warszawa
(52.2500°N, 21.0000°E)
Time: 22:32:53
(UTC+01:00)

A-11 Canister half - Pass Details

Date: 17 February 2023
Orbit: 1526 x 1682 km, 47.3° (Epoch: 22 March)

Event Time Altitude Azimuth Distance (km) Brightness Sun altitude
Exits shadow 05:03:20 22° 260° (W) 2,871 9.8 -16.7°
Maximum altitude 05:09:48 65° 186° (S) 1,655 9.1 -15.7°
Drops below altitude 10° 05:19:01 10° 107° (ESE) 3,723 12.3 -14.3°
Sets 05:22:07 0° 105° (ESE) 4,721 13.3 -13.8°
